[[{"header":{"parameterUnit":"m.s-1","parameterCategory":1,"la1":30.2991,"la2":30.254,"lo1":-89.0895,"lo2":-89.0444,"dy":0.0017,"dx":0.0017,"nx":28,"ny":28,"refTime":"2025-07-16T09:00:00:Z","depth":0,"parameterNumber":2,"parameterNumberName":"U-component_of_WINDS"},"data":[0,0,0,0,0,0,0,0,0,0,0,0,0,0,0,0,0,0,0,0,0,0,0,0,0,0,0,0,0,0,0,0,0,0,0,0,0,0,0,0,0,0,0,0,0,0,0,0,0,0,0,0,0,0,0,0,0,0,2.623,2.6231,0,2.6281,2.6281,2.6282,2.6218,2.6216,2.6213,2.6211,2.6264,2.6268,2.6271,0,0,0,0,0,0,0,0,0,0,0,0,0,2.6081,2.6084,2.623,2.6231,2.6231,2.6281,2.6281,2.6282,2.6219,2.6216,2.6213,2.621,2.6263,2.6267,2.6272,0,0,0,0,0,0,0,0,0,0,0,0,0,2.614,2.6085,2.623,2.6206,2.6204,2.628,2.6281,2.6282,2.6219,2.6216,2.6212,2.6209,2.6262,2.6267,2.6272,2.6375,0,0,2.6289,2.6291,0,0,0,0,0,0,0,0,2.6137,2.6146,2.6208,2.6207,2.6206,2.6239,2.6248,2.6313,2.622,2.6213,2.6211,2.6207,2.6259,2.6264,2.6281,2.6378,2.638,2.6289,2.6292,2.6295,2.6296,0,0,0,0,0,0,0,2.6133,2.6143,2.625,2.6209,2.6208,2.6193,2.6197,2.626,2.6255,2.6214,2.6209,2.6216,2.6257,2.6276,2.6282,2.6381,2.6289,2.6294,2.6297,2.6299,2.6568,2.6571,0,0,0,0,0,0,2.6131,2.614,2.6248,2.6252,2.6162,2.6198,2.6203,2.6232,2.6254,2.6254,2.6219,2.6213,2.6269,2.6276,2.6284,2.6408,2.6295,2.63,2.6303,2.6564,2.6569,2.6573,0,0,0,0,0,0,2.6128,2.6141,2.6246,2.6195,2.6207,2.6205,2.6237,2.6235,2.6254,2.6258,2.6257,2.6239,2.6267,2.6276,2.6354,2.6409,2.6302,2.6307,2.6559,2.6565,2.6571,2.6657,0,0,0,0,0,0,2.6124,2.6141,2.6179,2.6196,2.621,2.6315,2.6241,2.6239,2.6263,2.6256,2.6277,2.6277,2.6265,2.6346,2.6359,2.6415,2.6311,2.6554,2.6562,2.6569,2.6649,2.6665,2.6679,0,0,0,0,0,2.6119,2.6201,2.6181,2.6195,2.6258,2.6318,2.6326,2.631,2.6268,2.6307,2.6311,2.6276,2.6401,2.6355,2.6369,2.6427,2.6551,2.656,2.6568,2.6642,2.6662,2.6678,0,0,0,0,0,0,2.6191,2.6203,2.6181,2.6271,2.6294,2.6307,2.6356,2.633,2.6366,2.6357,2.6336,2.6341,2.6424,2.6433,2.6381,2.6529,2.6469,2.6481,2.6521,2.6539,2.6554,2.655,2.6316,0,0,0,0,0,2.6217,2.6264,2.6272,2.6351,2.6364,2.6358,2.6384,2.6369,2.6393,2.6402,2.6411,2.6435,2.648,2.651,2.6551,2.665,2.6655,2.6697,2.6712,2.6724,2.6735,2.679,2.681,2.6602,2.6602,2.6601,0,0,2.6272,2.6284,2.6315,2.6366,2.6382,2.6433,2.6367,2.6423,2.6461,2.641,2.6485,2.6492,2.6518,2.6608,2.6647,2.6617,2.6793,2.6735,2.6745,2.6749,2.6802,2.6821,2.6839,2.6608,2.6606,2.6606,0,0,2.6398,2.6411,2.6479,2.6497,2.6523,2.6519,2.6535,2.6553,2.6556,2.663,2.6595,2.664,2.6717,2.6737,2.6758,2.6894,2.6865,2.6908,2.6986,2.704,2.7057,2.7071,2.7122,2.714,2.6919,2.6919,2.692,0,2.6463,2.6537,2.6517,2.6577,2.6601,2.6558,2.6628,2.6646,2.6685,2.6703,2.6668,2.6766,2.678,2.6875,2.6909,2.6926,2.6946,2.6906,2.7056,2.707,2.7083,2.7132,2.7151,2.6925,2.6924,2.6923,2.6923,0,2.6617,2.6669,2.6721,2.676,2.679,2.6854,2.6845,2.6878,2.6861,2.6862,2.6939,2.6955,2.7,2.7021,2.7005,2.7115,2.7095,2.7059,2.6998,2.7109,2.7154,2.7172,2.6932,2.693,2.6929,2.6927,0,0,2.6789,2.6817,2.6837,2.6855,2.6881,2.6921,2.6984,2.7028,2.7058,2.7086,2.714,2.7207,2.7174,2.7198,2.7184,2.7231,2.7342,2.7189,2.719,2.7219,2.7466,2.7495,2.7517,2.7322,2.7325,2.7328,2.7465,0,2.6917,2.7026,2.7011,2.7116,2.7166,2.7127,2.7182,2.7205,2.7208,2.7251,2.7253,2.7302,2.7254,2.7268,2.7313,2.7319,2.7391,2.7308,2.7374,2.7376,2.737,2.754,2.7569,2.7698,2.7482,2.7485,2.7487,0,2.708,2.7115,2.7226,2.7246,2.7266,2.7316,2.7357,2.7398,2.7424,2.7422,2.745,2.7428,2.7493,2.7431,2.7521,2.7465,2.7491,2.7498,2.7502,2.7509,2.7439,2.7553,2.7738,2.7758,2.7514,2.7512,2.751,0,2.7198,2.7272,2.7348,2.7365,2.739,2.7426,2.7439,2.7461,2.7489,2.7525,2.7543,2.7586,2.761,2.7644,2.7635,2.759,2.7729,2.7665,2.7731,2.7732,2.7763,2.7761,2.7957,2.7777,2.7776,2.7776,2.7776,0,2.7343,2.7412,2.7402,2.7449,2.7526,2.7509,2.7587,2.7594,2.7615,2.7664,2.7633,2.768,2.7664,2.7711,2.7704,2.7781,2.7792,2.7794,2.7792,2.7798,2.7798,2.7815,2.7807,2.7781,2.778,2.7779,2.7778,0,2.7487,2.7482,2.7563,2.7581,2.7587,2.7644,2.766,2.7705,2.7705,2.7768,2.7782,2.7783,2.7836,2.7831,2.789,2.7886,2.7983,2.7969,2.7974,2.7972,2.8039,2.8034,2.8254,2.8283,2.8083,2.8085,2.8086,0,2.7581,2.7634,2.7658,2.7688,2.7704,2.7753,2.7782,2.7768,2.7799,2.7834,2.7876,2.7926,2.7966,2.8054,2.806,2.8107,2.8095,2.8169,2.8101,2.8107,2.8099,2.8096,2.8103,2.8183,2.8185,2.8187,2.8188,0,2.7749,2.7744,2.7787,2.783,2.7866,2.7899,2.7928,2.7956,2.7944,2.7982,2.8036,2.8067,2.8129,2.8181,2.8225,2.8238,2.8213,2.8209,2.8227,2.8235,2.8237,2.8239,2.8012,2.8204,2.8203,2.8202,2.8201,2.82,2.7872,2.7918,2.7943,2.7992,2.8013,2.8043,2.8087,2.8093,2.8138,2.8187,2.8176,2.8238,2.8265,2.8322,2.834,2.8389,2.8363,2.8388,2.8395,2.8402,2.8411,2.8228,2.8397,2.8396,2.8396,2.8396,2.8395,0,2.804,2.8054,2.81,2.8143,2.8183,2.8154,2.8187,2.8222,2.8277,2.8304,2.8344,2.8408,2.8458,2.847,2.8518,2.8556,2.8545,2.8569,2.8567,2.8571,2.8431,2.8412,2.8577,2.8577,2.8577,2.8577,2.8577,2.8577,2.8132,2.821,2.8208,2.8297,2.831,2.8371,2.8392,2.842,2.8442,2.8514,2.8556,2.8563,2.8585,2.8635,2.8681,2.8683,2.8703,2.8732,2.873,2.8599,2.8581,2.8564,2.8545,2.8736,2.8736,2.8866,2.8868,2.8868]},{"header":{"parameterUnit":"m.s-1","parameterCategory":1,"la1":30.2991,"la2":30.254,"lo1":-89.0895,"lo2":-89.0444,"dy":0.0017,"dx":0.0017,"nx":28,"ny":28,"refTime":"2025-07-16T09:00:00:Z","depth":0,"parameterNumber":3,"parameterNumberName":"V-component_of_WINDS"},"data":[0,0,0,0,0,0,0,0,0,0,0,0,0,0,0,0,0,0,0,0,0,0,0,0,0,0,0,0,0,0,0,0,0,0,0,0,0,0,0,0,0,0,0,0,0,0,0,0,0,0,0,0,0,0,0,0,0,0,-4.6247,-4.6248,0,-4.6397,-4.6399,-4.64,-4.639,-4.6388,-4.6386,-4.6384,-4.6536,-4.6542,-4.6548,0,0,0,0,0,0,0,0,0,0,0,0,0,-4.595,-4.5955,-4.6247,-4.6249,-4.625,-4.6397,-4.6399,-4.6401,-4.6391,-4.6388,-4.6385,-4.6383,-4.6534,-4.6541,-4.6549,0,0,0,0,0,0,0,0,0,0,0,0,0,-4.6087,-4.5957,-4.6246,-4.6263,-4.6266,-4.6396,-4.6399,-4.6401,-4.6391,-4.6388,-4.6385,-4.6382,-4.6532,-4.6541,-4.655,-4.6672,0,0,-4.6578,-4.6581,0,0,0,0,0,0,0,0,-4.6079,-4.6098,-4.6259,-4.6262,-4.6266,-4.6372,-4.635,-4.6492,-4.6392,-4.6344,-4.6384,-4.638,-4.6484,-4.6497,-4.6532,-4.6679,-4.6686,-4.6578,-4.6584,-4.6588,-4.659,0,0,0,0,0,0,0,-4.607,-4.6092,-4.6306,-4.6261,-4.6265,-4.6263,-4.6279,-4.6377,-4.643,-4.6348,-4.6347,-4.6365,-4.6485,-4.6523,-4.6536,-4.6688,-4.6578,-4.6586,-4.6592,-4.6595,-4.6944,-4.6948,0,0,0,0,0,0,-4.6057,-4.6084,-4.6301,-4.6311,-4.6163,-4.6271,-4.6289,-4.6341,-4.6429,-4.644,-4.6368,-4.6364,-4.6509,-4.6525,-4.6541,-4.6691,-4.6588,-4.6596,-4.6602,-4.6941,-4.6945,-4.6949,0,0,0,0,0,0,-4.605,-4.6076,-4.6295,-4.6197,-4.6225,-4.6279,-4.6338,-4.6346,-4.6384,-4.6445,-4.6454,-4.6397,-4.6507,-4.6528,-4.664,-4.6696,-4.66,-4.6609,-4.6936,-4.6942,-4.6947,-4.6992,0,0,0,0,0,0,-4.6042,-4.6074,-4.6122,-4.6198,-4.623,-4.6392,-4.6342,-4.6351,-4.64,-4.6397,-4.6475,-4.6485,-4.6506,-4.6626,-4.6649,-4.6707,-4.6616,-4.6931,-4.6939,-4.6946,-4.6985,-4.6998,-4.7009,0,0,0,0,0,-4.6031,-4.6127,-4.6124,-4.615,-4.6291,-4.6395,-4.6414,-4.6437,-4.6404,-4.6453,-4.6492,-4.6482,-4.6686,-4.6638,-4.6663,-4.6725,-4.6928,-4.6937,-4.6945,-4.698,-4.6996,-4.7009,0,0,0,0,0,0,-4.6055,-4.6138,-4.6135,-4.6259,-4.632,-4.6394,-4.6455,-4.6453,-4.6525,-4.6518,-4.6544,-4.6562,-4.6674,-4.6711,-4.6655,-4.6849,-4.6803,-4.6817,-4.6821,-4.6836,-4.6848,-4.6836,-4.6624,0,0,0,0,0,-4.6075,-4.6153,-4.6221,-4.6324,-4.6355,-4.64,-4.6446,-4.6459,-4.6524,-4.655,-4.6597,-4.666,-4.6738,-4.6789,-4.6864,-4.6991,-4.7008,-4.7046,-4.7057,-4.7067,-4.7078,-4.7149,-4.7166,-4.6977,-4.6977,-4.6977,0,0,-4.6116,-4.6171,-4.6219,-4.633,-4.6379,-4.646,-4.6422,-4.6508,-4.6569,-4.6563,-4.6672,-4.6709,-4.678,-4.69,-4.6955,-4.6934,-4.7135,-4.7078,-4.7085,-4.7091,-4.7159,-4.7177,-4.7193,-4.6983,-4.6982,-4.6981,0,0,-4.6232,-4.6282,-4.6373,-4.6424,-4.6499,-4.6528,-4.655,-4.6625,-4.6649,-4.6759,-4.6757,-4.6828,-4.6963,-4.7014,-4.7058,-4.7195,-4.7189,-4.7219,-4.728,-4.7348,-4.7363,-4.7376,-4.7426,-4.7443,-4.723,-4.723,-4.723,0,-4.6274,-4.6396,-4.642,-4.6508,-4.6557,-4.6557,-4.6649,-4.6697,-4.6793,-4.6827,-4.6801,-4.6971,-4.7019,-4.7151,-4.7185,-4.722,-4.7246,-4.721,-4.7359,-4.7373,-4.7385,-4.7433,-4.7451,-4.7233,-4.7233,-4.7233,-4.7232,0,-4.6443,-4.6528,-4.6593,-4.6687,-4.6743,-4.6833,-4.687,-4.6924,-4.6933,-4.6965,-4.7077,-4.7135,-4.7222,-4.7255,-4.7263,-4.7389,-4.7373,-4.7353,-4.7308,-4.7406,-4.7451,-4.7469,-4.7238,-4.7237,-4.7236,-4.7235,0,0,-4.6578,-4.6685,-4.6708,-4.6751,-4.6835,-4.6901,-4.699,-4.7077,-4.7123,-4.7189,-4.7265,-4.738,-4.7362,-4.7412,-4.7426,-4.7486,-4.7592,-4.7459,-4.7461,-4.7482,-4.7734,-4.7748,-4.7769,-4.7588,-4.7592,-4.7595,-4.7728,0,-4.6703,-4.6863,-4.6888,-4.7029,-4.7108,-4.7109,-4.7187,-4.7247,-4.7279,-4.735,-4.7386,-4.7467,-4.7437,-4.7467,-4.7527,-4.7566,-4.7643,-4.7557,-4.7659,-4.7662,-4.7641,-4.7792,-4.7807,-4.793,-4.7745,-4.7748,-4.7751,0,-4.6871,-4.6943,-4.7091,-4.7165,-4.7199,-4.7269,-4.7351,-4.7419,-4.7487,-4.7506,-4.7562,-4.757,-4.7663,-4.7614,-4.7742,-4.7684,-4.7727,-4.7753,-4.7758,-4.7769,-4.7712,-4.7806,-4.797,-4.7988,-4.7778,-4.7776,-4.7774,0,-4.6954,-4.7088,-4.7195,-4.7231,-4.732,-4.7369,-4.7408,-4.7473,-4.7524,-4.7595,-4.7628,-4.7709,-4.7753,-4.7815,-4.7845,-4.7806,-4.7972,-4.7925,-4.7991,-4.799,-4.8025,-4.8023,-4.8198,-4.8053,-4.8053,-4.8052,-4.8052,0,-4.7091,-4.7182,-4.7234,-4.7299,-4.7401,-4.7429,-4.7529,-4.7567,-4.7625,-4.7697,-4.7703,-4.7771,-4.7805,-4.7879,-4.7902,-4.8006,-4.8025,-4.8044,-4.8049,-4.8043,-4.8041,-4.8072,-4.8064,-4.8057,-4.8056,-4.8055,-4.8054,0,-4.7202,-4.724,-4.7356,-4.7431,-4.7452,-4.7524,-4.7588,-4.7652,-4.7684,-4.7776,-4.7799,-4.785,-4.7936,-4.7972,-4.8078,-4.8093,-4.8212,-4.8211,-4.819,-4.8191,-4.8255,-4.8249,-4.8457,-4.8485,-4.8321,-4.8323,-4.8324,0,-4.7287,-4.7357,-4.744,-4.7489,-4.753,-4.761,-4.7662,-4.7692,-4.7746,-4.7829,-4.7883,-4.797,-4.8041,-4.8179,-4.8225,-4.8306,-4.8307,-4.8374,-4.8319,-4.8312,-4.8308,-4.8304,-4.8311,-4.8384,-4.8386,-4.8387,-4.8388,0,-4.7434,-4.745,-4.7525,-4.7607,-4.7669,-4.7735,-4.7799,-4.7839,-4.7879,-4.794,-4.8029,-4.8084,-4.8193,-4.8279,-4.8363,-4.8403,-4.8403,-4.8405,-4.8425,-4.842,-4.8405,-4.8414,-4.8218,-4.84,-4.8399,-4.8398,-4.8397,-4.8397,-4.7535,-4.7597,-4.7666,-4.7749,-4.7801,-4.7861,-4.7925,-4.7966,-4.8041,-4.8132,-4.8145,-4.8241,-4.8308,-4.8421,-4.8464,-4.8539,-4.8522,-4.855,-4.8557,-4.8564,-4.8568,-4.8393,-4.8554,-4.8554,-4.8554,-4.8554,-4.8553,0,-4.7682,-4.7726,-4.7803,-4.7893,-4.7959,-4.7954,-4.8025,-4.808,-4.8165,-4.8227,-4.8297,-4.84,-4.8484,-4.8537,-4.8622,-4.8671,-4.8673,-4.8693,-4.8689,-4.8699,-4.8579,-4.8553,-4.869,-4.869,-4.869,-4.869,-4.869,-4.869,-4.7767,-4.7873,-4.7897,-4.8029,-4.8072,-4.8166,-4.8207,-4.8263,-4.8313,-4.8428,-4.8498,-4.8532,-4.8591,-4.868,-4.8757,-4.877,-4.8801,-4.8822,-4.8834,-4.8721,-4.8707,-4.8693,-4.867,-4.8828,-4.8829,-4.8948,-4.8949,-4.895]}]]